Location: *
(33.8649°S, 62.1526°E)
Time: 09:09:28
(UTC+00:00)

X-37B - Visible Passes

Search period start: 23 April 2021 00:00
Search period end: 03 May 2021 00:00
Orbit: 380 x 394 km, 45.0° (Epoch: 07 April)

Date Brightness Start Highest point End Pass type
(mag) Time Alt. Az. Time Alt. Az. Time Alt. Az.
23 Apr 2.5 14:55:00 10° W 14:57:48 27° NW 14:58:43 23° N visible
24 Apr 1.2 13:56:20 10° WSW 13:59:32 59° NW 14:02:43 10° NE visible
25 Apr 3.7 14:35:56 10° WNW 14:37:30 13° NW 14:39:04 10° NNW visible
